NOAA 16 DEB

Satellite information

Favourite Embed

Satellite Type and Status

DEBRISIN ORBIT

Key statistics

Satellite NOAA 16 DEB at a glance.

Uptime

9116

Days in orbit

Revolutions

≈ 14.2

Per day

Orbit

SSO

Sun Synchronous Orbit

Inclination

98.5

Latest

Satellite identification and parameters

Extended collection of information and parameters for NOAA 16 DEB.

Object identification

Identified? True

Debris? True

Object name: NOAA 16 DEB

International designator: 2000-055EV

Object number (NORAD): 41245

Object ID (CCSDS): 41245

Country: UNITED STATES OF AMERICA (US)

Current information (Y/N): Y

RCS size: SMALL

Orbital parameters

Period: 101.498 minutes

Inclination: 98.5475 deg

SMA: 7207.75 km

Apoapsis: 840.556 km

Periapsis: 818.674 km

RAAN: 272.756 deg

Eccentricy: 0.00151796

Argument of periapsis: 194.9707 deg

Mean anomaly: 165.1022 deg

Mean motion: 14.18741354 rev/day

Mean motion (dot): 0.00003737 rev/day2

B* drag term: 0.0018171347 1/REarth

Two-line elements (TLE)

Creation date: Sept. 2, 2025, 11:42 p.m.

Reference frame: TEME

Reference center: EARTH

Epoch: Sept. 2, 2025, 7:55 a.m. UTC

TLE line 0: 0 NOAA 16 DEB

TLE line 1: 1 41245U 00055EV 25245.32992065 .00003737 00000-0 18171-2 0 9990

TLE line 2: 2 41245 98.5475 272.7560 0015180 194.9707 165.1022 14.18741354497776

Live tracking on map

Real-time ground track for satellite NOAA 16 DEB.

In-orbit conjunctions

A list of the most updated potential collisions computed for object NOAA 16 DEB.

Target Orbit TCA Probability of collision Miss distance Type
NOAA 16 DEB SSO 2024-11-14 20:31:20 0.0001458844 436.0 (m) DEBRIS
SL-14 DEB * LEO 2024-09-07 05:27:31 0.0002228319 37.0 (m) DEBRIS

Associated space launch

The NOAA K, L and M POES satellites begin the fifth generation of improved environmental monitoring in support of NOAA missions. The instrument payload has significant improvements and additions/deletions. The instrument changes have effected the spacecraft subsystems and data formats.

NOAA 16 DEB was lifted into orbit during the mission ‘Titan II SLV | NOAA 16’, on board a Titan II SLV space rocket.

The launch took place on Sept. 21, 2000, 10:22 a.m. from Space Launch Complex 4W.

For more information about the launch, click the button.

Launch to space Titan II SLV | NOAA 16
Titan II SLV | NOAA 16

Agency: N/A

Status: Launch Successful

Launch date: Sept. 21, 2000, 10:22 a.m. UTC

Rocket: Titan II SLV

Launch pad: Space Launch Complex 4W

Location: Vandenberg SFB, CA, USA

...

Latest news about this satellite

There are no fresh news available about this satellite. Check back as we update our databases every day.


Newsletter sign-up

Weekly statistics, charts and insights to help you stay on top of the space industry.